Point Lay, AK

8:43 PM AKST on February 20, 2018 (GMT -0900)
Point Lay

Weather History for PPIZ - January, 2013

Change the Weather History Date:

Sunday, January 20, 2013

  Actual Average Record
Temperature  
Mean Temperature -18 °F -  
Max Temperature -10 °F -7 °F 32 °F (2008)
Min Temperature -27 °F -18 °F -35 °F (2009)
Degree Days  
Heating Degree Days 84    
Moisture  
Dew Point -24 °F    
Average Humidity 75    
Maximum Humidity 79    
Minimum Humidity 69    
Precipitation  
Precipitation 0.00 in - - ()
Sea Level Pressure  
Sea Level Pressure 30.55 in    
Wind  
Wind Speed 3 mph (ENE)    
Max Wind Speed 31 mph    
Max Gust Speed 41 mph    
Averages and records for this station are not official NWS values.
T = Trace of Precipitation, MM = Missing Value Source: NWS Daily Summary

Daily Weather History Graph

Daily Weather History Graph

Search for Another Location

Airport or City:

Trip Planner

Search our weather history database for the weather conditions in past years. The results will help you decide how hot, cold, wet, or windy it might be!

Date:

Astronomy

Jan. 20, 2013 Rise Set
Actual Time 12:41 PM AKST 3:25 PM AKST
Civil Twilight 10:48 AM AKST 5:18 PM AKST
Nautical Twilight 9:23 AM AKST 6:43 PM AKST
Astronomical Twilight 8:11 AM AKST 7:56 PM AKST
Moon 10:53 AM AKST (1/20) 7:00 AM AKST (1/20)
Length of Visible Light 6h 29m
Length of Day
2h 44m
Waxing Gibbous, 67% of the Moon is Illuminated
Jan 20
Waxing Gibbous
Jan 26
Full
Feb 3
Last Quarter
Feb 9
New
Feb 17
First Quarter

Hourly Weather History & Observations

Time (AKST) Temp. Windchill Dew Point Humidity Pressure Visibility Wind Dir Wind Speed Gust Speed Precip Events Conditions
12:36 AM -27.4 °F - -34.6 °F 69% 30.68 in - Calm Calm - 0.00 in Snow Light Snow
12:56 AM -26.9 °F - -33.0 °F 73% 30.69 in - Calm Calm - 0.00 in Snow Light Snow
1:13 AM -25.6 °F - -32.8 °F 69% 30.67 in - Calm Calm - 0.00 in Snow Light Snow
1:26 AM -25.6 °F - -32.8 °F 69% 30.67 in - Calm Calm - 0.00 in   Overcast
1:56 AM -24.0 °F - -31.0 °F 70% 30.68 in - Calm Calm - 0.00 in   Overcast
2:07 AM -23.8 °F - -31.0 °F 69% 30.66 in - Calm Calm - N/A   Overcast
2:30 AM -23.8 °F - -29.2 °F 76% 30.65 in - Calm Calm - N/A   Overcast
2:56 AM -23.8 °F - -29.2 °F 76% 30.64 in - Calm Calm - N/A   Overcast
3:56 AM -22.0 °F - -27.9 °F 74% 30.63 in - Calm Calm - N/A   Overcast
4:56 AM -20.9 °F - -26.9 °F 74% 30.62 in - Calm Calm - 0.00 in Snow Light Snow
5:56 AM -19.8 °F - -26.0 °F 73% 30.60 in - Calm Calm - 0.00 in Snow Light Snow
6:56 AM -20.9 °F - -26.9 °F 74% 30.58 in - Calm Calm - 0.00 in Snow Light Snow
7:56 AM -19.8 °F - -26.0 °F 73% 30.57 in - Calm Calm - 0.00 in   Overcast
8:56 AM -18.9 °F - -24.9 °F 74% 30.56 in - Calm Calm - N/A   Overcast
9:56 AM -17.0 °F - -22.9 °F 74% 30.55 in - Calm Calm - N/A   Overcast
10:56 AM -17.0 °F - -22.0 °F 78% 30.53 in - Calm Calm - 0.00 in Snow Light Snow
11:56 AM -15.9 °F - -20.9 °F 78% 30.51 in - Calm Calm - 0.00 in Snow Light Snow
12:56 PM -13.9 °F - -19.8 °F 75% 30.51 in - Calm Calm - 0.00 in Snow Light Snow
1:56 PM -13.9 °F - -19.8 °F 75% 30.50 in - Calm Calm - 0.00 in Snow Light Snow
2:56 PM -13.9 °F - -19.8 °F 75% 30.49 in - Calm Calm - 0.00 in   Overcast
3:56 PM -13.9 °F - -19.8 °F 75% 30.48 in - Calm Calm - 0.00 in Snow Light Snow
4:56 PM -13.9 °F - -18.9 °F 78% 30.46 in - Calm Calm - 0.00 in Snow Light Snow
5:56 PM -13.9 °F - -18.9 °F 78% 30.45 in - Calm Calm - 0.00 in Snow Light Snow
6:56 PM -13.0 °F - -17.9 °F 79% 30.45 in - Calm Calm - 0.00 in Snow Light Snow
7:56 PM -11.9 °F - -17.9 °F 75% 30.45 in - Calm Calm - 0.00 in Snow Light Snow
8:42 PM -11.2 °F -39.7 °F -16.6 °F 77% 30.43 in - ENE 26.5 mph 33.4 mph 0.00 in Snow Light Snow
8:56 PM -11.9 °F -40.2 °F -17.0 °F 78% 30.44 in - ENE 25.3 mph 32.2 mph 0.00 in Snow Light Snow
9:07 PM -11.2 °F -39.7 °F -16.6 °F 77% 30.43 in - ENE 26.5 mph 31.1 mph 0.00 in Snow Light Snow
9:56 PM -11.9 °F -42.0 °F -17.0 °F 78% 30.44 in - ENE 29.9 mph 35.7 mph 0.00 in Snow Light Snow
10:56 PM -10.8 °F -40.5 °F -15.9 °F 78% 30.44 in - ENE 29.9 mph 41.4 mph 0.00 in Snow Light Snow
11:56 PM -10.8 °F -41.0 °F -15.9 °F 78% 30.46 in - ENE 31.1 mph 38.0 mph 0.00 in   Overcast